| time (UTC) | temp C | wind direction | speed KPH | gust KPH | rain 1hr cm | rain 24hr cm | rain mn cm | humidity % | barometer mb |
| 20260906095603 | 30 | 60 | 4.8 | 9.7 | 0.00 | 0.00 | 0.00 | 53 | 1018.6 |
| 20260906095203 | 30 | 43 | 4.8 | 9.7 | 0.00 | 0.00 | 0.00 | 51 | 1018.7 |
| 20260906094803 | 30 | 38 | 3.2 | 9.7 | 0.00 | 0.00 | 0.00 | 52 | 1018.6 |
| 20260906094403 | 30 | 29 | 4.8 | 9.7 | 0.00 | 0.00 | 0.00 | 52 | 1018.9 |
| 20260906094216 | 30 | 35 | 3.2 | 9.7 | 0.00 | 0.00 | 0.00 | 52 | 1018.5 |
| 20260906093603 | 30 | 2 | 3.2 | 11.3 | 0.00 | 0.00 | 0.00 | 52 | 1018.6 |
| 20260906093203 | 30 | 353 | 6.4 | 17.7 | 0.00 | 0.00 | 0.00 | 52 | 1019.0 |
| 20260906092803 | 30 | 17 | 1.6 | 17.7 | 0.00 | 0.00 | 0.00 | 53 | 1018.7 |
| 20260906092403 | 30 | 35 | 3.2 | 17.7 | 0.00 | 0.00 | 0.00 | 53 | 1018.9 |
| 20260906092003 | 30 | 51 | 4.8 | 11.3 | 0.00 | 0.00 | 0.00 | 53 | 1018.6 |
| 20260906091603 | 30 | 18 | 3.2 | 14.5 | 0.00 | 0.00 | 0.00 | 53 | 1018.9 |
| 20260906091416 | 30 | 8 | 3.2 | 14.5 | 0.00 | 0.00 | 0.00 | 53 | 1018.8 |
| 20260906090803 | 30 | 8 | 6.4 | 14.5 | 0.00 | 0.00 | 0.00 | 53 | 1018.7 |
| 20260906090615 | 29 | 17 | 3.2 | 14.5 | 0.00 | 0.00 | 0.00 | 54 | 1018.8 |
| 20260906090214 | 28 | 31 | 4.8 | 14.5 | 0.00 | 0.00 | 0.00 | 56 | 1018.9 |
| 20260906085814 | 28 | 56 | 3.2 | 12.9 | 0.00 | 0.00 | 0.00 | 56 | 1019.0 |
| 20260906085413 | 29 | 65 | 6.4 | 12.9 | 0.00 | 0.00 | 0.00 | 54 | 1018.7 |
| 20260906084803 | 28 | 29 | 3.2 | 11.3 | 0.00 | 0.00 | 0.00 | 56 | 1019.0 |
| 20260906084403 | 28 | 36 | 3.2 | 12.9 | 0.00 | 0.00 | 0.00 | 56 | 1018.8 |
| 20260906084003 | 28 | 36 | 3.2 | 12.9 | 0.00 | 0.00 | 0.00 | 55 | 1018.9 |
| 20260906083603 | 28 | 37 | 4.8 | 11.3 | 0.00 | 0.00 | 0.00 | 56 | 1018.8 |
| 20260906083203 | 28 | 39 | 3.2 | 9.7 | 0.00 | 0.00 | 0.00 | 55 | 1018.9 |
| 20260906082803 | 28 | 50 | 4.8 | 12.9 | 0.00 | 0.00 | 0.00 | 56 | 1018.9 |
| 20260906082403 | 28 | 39 | 4.8 | 12.9 | 0.00 | 0.00 | 0.00 | 56 | 1018.6 |
| 20260906082003 | 28 | 36 | 4.8 | 12.9 | 0.00 | 0.00 | 0.00 | 57 | 1018.9 |
| 20260906081603 | 28 | 29 | 3.2 | 17.7 | 0.00 | 0.00 | 0.00 | 56 | 1018.6 |
| 20260906081203 | 28 | 28 | 3.2 | 17.7 | 0.00 | 0.00 | 0.00 | 56 | 1018.6 |
| 20260906080803 | 27 | 23 | 4.8 | 17.7 | 0.00 | 0.00 | 0.00 | 58 | 1018.7 |
| 20260906080404 | 28 | 17 | 4.8 | 14.5 | 0.00 | 0.00 | 0.00 | 57 | 1018.6 |
| 20260906080004 | 27 | 19 | 6.4 | 14.5 | 0.00 | 0.00 | 0.00 | 58 | 1018.6 |
| 20260906075603 | 27 | 24 | 3.2 | 14.5 | 0.00 | 0.00 | 0.00 | 59 | 1018.6 |
| 20260906075203 | 28 | 29 | 6.4 | 12.9 | 0.00 | 0.00 | 0.00 | 56 | 1018.6 |
| 20260906074803 | 27 | 32 | 6.4 | 11.3 | 0.00 | 0.00 | 0.00 | 57 | 1018.7 |
| 20260906074403 | 28 | 23 | 3.2 | 6.4 | 0.00 | 0.00 | 0.00 | 58 | 1018.6 |
| 20260906074003 | 28 | 26 | 1.6 | 17.7 | 0.00 | 0.00 | 0.00 | 57 | 1018.6 |
| 20260906073603 | 27 | 24 | 3.2 | 17.7 | 0.00 | 0.00 | 0.00 | 60 | 1018.5 |
| 20260906073416 | 27 | 23 | 4.8 | 17.7 | 0.00 | 0.00 | 0.00 | 60 | 1018.4 |
| 20260906072803 | 26 | 29 | 0.0 | 12.9 | 0.00 | 0.00 | 0.00 | 62 | 1018.4 |
| 20260906072403 | 26 | 26 | 6.4 | 14.5 | 0.00 | 0.00 | 0.00 | 62 | 1018.4 |
| 20260906072214 | 26 | 19 | 3.2 | 17.7 | 0.00 | 0.00 | 0.00 | 61 | 1018.6 |
| 20260906071603 | 26 | 357 | 3.2 | 17.7 | 0.00 | 0.00 | 0.00 | 64 | 1018.2 |
| 20260906071203 | 26 | 360 | 6.4 | 20.9 | 0.00 | 0.00 | 0.00 | 64 | 1018.3 |
| 20260906070803 | 26 | 13 | 4.8 | 20.9 | 0.00 | 0.00 | 0.00 | 65 | 1018.6 |
| 20260906070616 | 26 | 12 | 4.8 | 20.9 | 0.00 | 0.00 | 0.00 | 65 | 1018.3 |
| 20260906070216 | 26 | 19 | 6.4 | 12.9 | 0.00 | 0.00 | 0.00 | 66 | 1018.3 |
| 20260906065603 | 26 | 21 | 3.2 | 9.7 | 0.00 | 0.00 | 0.00 | 66 | 1018.1 |
| 20260906065203 | 26 | 22 | 3.2 | 12.9 | 0.00 | 0.00 | 0.00 | 66 | 1018.1 |
| 20260906064803 | 25 | 8 | 4.8 | 12.9 | 0.00 | 0.00 | 0.00 | 67 | 1018.2 |
| 20260906064403 | 25 | 5 | 6.4 | 14.5 | 0.00 | 0.00 | 0.00 | 68 | 1018.3 |
| 20260906064003 | 25 | 354 | 8.0 | 14.5 | 0.00 | 0.00 | 0.00 | 68 | 1017.9 |
| 20260906063603 | 25 | 346 | 4.8 | 14.5 | 0.00 | 0.00 | 0.00 | 69 | 1018.0 |
| 20260906063203 | 25 | 326 | 6.4 | 12.9 | 0.00 | 0.00 | 0.00 | 69 | 1018.0 |
| 20260906062803 | 25 | 343 | 3.2 | 12.9 | 0.00 | 0.00 | 0.00 | 69 | 1018.0 |
| 20260906062403 | 24 | 342 | 3.2 | 12.9 | 0.00 | 0.00 | 0.00 | 70 | 1018.1 |
| 20260906062003 | 24 | 11 | 3.2 | 12.9 | 0.00 | 0.00 | 0.00 | 71 | 1017.8 |
| 20260906061603 | 24 | 16 | 3.2 | 12.9 | 0.00 | 0.00 | 0.00 | 71 | 1017.6 |
| 20260906061413 | 24 | 24 | 3.2 | 12.9 | 0.00 | 0.00 | 0.00 | 71 | 1017.6 |
| 20260906060803 | 24 | 359 | 3.2 | 6.4 | 0.00 | 0.00 | 0.00 | 72 | 1017.7 |
| 20260906060403 | 23 | 1 | 3.2 | 6.4 | 0.00 | 0.00 | 0.00 | 73 | 1017.8 |
| 20260906060003 | 23 | 1 | 3.2 | 6.4 | 0.00 | 0.00 | 0.00 | 74 | 1017.8 |
| 20260906055816 | 23 | 4 | 3.2 | 6.4 | 0.00 | 0.00 | 0.00 | 74 | 1017.7 |
| 20260906055204 | 23 | 340 | 3.2 | 6.4 | 0.00 | 0.00 | 0.00 | 75 | 1017.8 |
| 20260906054803 | 23 | 351 | 1.6 | 6.4 | 0.00 | 0.00 | 0.00 | 75 | 1017.8 |
| 20260906054403 | 23 | 341 | 0.0 | 6.4 | 0.00 | 0.00 | 0.00 | 75 | 1017.5 |
| 20260906054003 | 23 | 339 | 3.2 | 6.4 | 0.00 | 0.00 | 0.00 | 75 | 1017.5 |
| 20260906053603 | 23 | 346 | 3.2 | 6.4 | 0.00 | 0.00 | 0.00 | 76 | 1017.4 |
| 20260906053417 | 23 | 358 | 1.6 | 6.4 | 0.00 | 0.00 | 0.00 | 76 | 1017.6 |
| 20260906053016 | 22 | 353 | 1.6 | 6.4 | 0.00 | 0.00 | 0.00 | 76 | 1017.3 |
| 20260906052403 | 22 | 338 | 0.0 | 6.4 | 0.00 | 0.00 | 0.00 | 76 | 1017.4 |
| 20260906052003 | 22 | 334 | 0.0 | 6.4 | 0.00 | 0.00 | 0.00 | 76 | 1017.3 |
| 20260906051603 | 22 | 353 | 3.2 | 6.4 | 0.00 | 0.00 | 0.00 | 76 | 1017.2 |
| 20260906051203 | 22 | 360 | 1.6 | 6.4 | 0.00 | 0.00 | 0.00 | 76 | 1017.2 |
| 20260906050803 | 22 | 352 | 3.2 | 6.4 | 0.00 | 0.00 | 0.00 | 76 | 1017.0 |
| 20260906050612 | 22 | 353 | 1.6 | 6.4 | 0.00 | 0.00 | 0.00 | 77 | 1017.2 |
| 20260906050003 | 22 | 1 | 3.2 | 6.4 | 0.00 | 0.00 | 0.00 | 77 | 1017.2 |
| 20260906045603 | 22 | 354 | 0.0 | 3.2 | 0.00 | 0.00 | 0.00 | 77 | 1017.1 |
| 20260906045203 | 22 | 349 | 1.6 | 6.4 | 0.00 | 0.00 | 0.00 | 77 | 1017.2 |
| 20260906045015 | 22 | 351 | 3.2 | 6.4 | 0.00 | 0.00 | 0.00 | 77 | 1016.9 |
| 20260906044614 | 22 | 345 | 1.6 | 6.4 | 0.00 | 0.00 | 0.00 | 77 | 1017.2 |
| 20260906044003 | 22 | 350 | 3.2 | 6.4 | 0.00 | 0.00 | 0.00 | 77 | 1016.9 |
| 20260906043603 | 22 | 353 | 1.6 | 9.7 | 0.00 | 0.00 | 0.00 | 77 | 1016.8 |
| 20260906043418 | 22 | 351 | 3.2 | 9.7 | 0.00 | 0.00 | 0.00 | 77 | 1016.9 |
| 20260906043017 | 22 | 346 | 1.6 | 9.7 | 0.00 | 0.00 | 0.00 | 76 | 1016.8 |
| 20260906042403 | 22 | 360 | 1.6 | 6.4 | 0.00 | 0.00 | 0.00 | 76 | 1016.6 |
| 20260906042003 | 22 | 8 | 1.6 | 11.3 | 0.00 | 0.00 | 0.00 | 76 | 1016.6 |
| 20260906041603 | 22 | 15 | 3.2 | 11.3 | 0.00 | 0.00 | 0.00 | 76 | 1016.5 |
| 20260906041203 | 22 | 3 | 6.4 | 11.3 | 0.00 | 0.00 | 0.00 | 76 | 1016.6 |
| 20260906041014 | 22 | 354 | 1.6 | 6.4 | 0.00 | 0.00 | 0.00 | 76 | 1016.4 |
| 20260906040403 | 23 | 360 | 1.6 | 6.4 | 0.00 | 0.00 | 0.00 | 76 | 1016.6 |
| 20260906040003 | 23 | 4 | 3.2 | 6.4 | 0.00 | 0.00 | 0.00 | 76 | 1016.6 |
| 20260906035817 | 23 | 3 | 3.2 | 6.4 | 0.00 | 0.00 | 0.00 | 76 | 1016.5 |
| 20260906035203 | 23 | 336 | 1.6 | 6.4 | 0.00 | 0.00 | 0.00 | 76 | 1016.4 |
| 20260906035016 | 23 | 335 | 3.2 | 6.4 | 0.00 | 0.00 | 0.00 | 76 | 1016.3 |
| 20260906034403 | 23 | 347 | 1.6 | 6.4 | 0.00 | 0.00 | 0.00 | 76 | 1016.3 |
| 20260906034004 | 23 | 342 | 1.6 | 9.7 | 0.00 | 0.00 | 0.00 | 76 | 1016.2 |
| 20260906033603 | 23 | 328 | 1.6 | 9.7 | 0.00 | 0.00 | 0.00 | 76 | 1016.4 |
| 20260906033204 | 23 | 330 | 3.2 | 9.7 | 0.00 | 0.00 | 0.00 | 76 | 1016.2 |
| 20260906032803 | 23 | 334 | 1.6 | 6.4 | 0.00 | 0.00 | 0.00 | 76 | 1016.3 |
| 20260906032403 | 23 | 327 | 1.6 | 6.4 | 0.00 | 0.00 | 0.00 | 76 | 1016.3 |
| 20260906032003 | 23 | 336 | 3.2 | 6.4 | 0.00 | 0.00 | 0.00 | 76 | 1016.3 |
| 20260906031816 | 23 | 342 | 3.2 | 6.4 | 0.00 | 0.00 | 0.00 | 76 | 1016.1 |
| 20260906031203 | 23 | 333 | 0.0 | 6.4 | 0.00 | 0.00 | 0.00 | 77 | 1016.1 |
| 20260906030803 | 23 | 340 | 1.6 | 6.4 | 0.00 | 0.00 | 0.00 | 76 | 1016.1 |
| 20260906030614 | 23 | 336 | 3.2 | 6.4 | 0.00 | 0.00 | 0.00 | 76 | 1016.2 |
| 20260906030213 | 23 | 340 | 1.6 | 6.4 | 0.00 | 0.00 | 0.00 | 77 | 1016.3 |
| 20260906025603 | 23 | 337 | 0.0 | 3.2 | 0.00 | 0.00 | 0.00 | 78 | 1016.4 |
| 20260906025203 | 23 | 334 | 1.6 | 3.2 | 0.00 | 0.00 | 0.00 | 78 | 1016.2 |
| 20260906024803 | 23 | 339 | 1.6 | 3.2 | 0.00 | 0.00 | 0.00 | 78 | 1016.5 |
| 20260906024616 | 23 | 341 | 1.6 | 3.2 | 0.00 | 0.00 | 0.00 | 79 | 1016.4 |
| 20260906024215 | 23 | 327 | 0.0 | 3.2 | 0.00 | 0.00 | 0.00 | 78 | 1016.3 |
| 20260906023603 | 23 | 334 | 1.6 | 3.2 | 0.00 | 0.00 | 0.00 | 78 | 1016.4 |
| 20260906023203 | 23 | 350 | 0.0 | 6.4 | 0.00 | 0.00 | 0.00 | 78 | 1016.2 |
| 20260906023013 | 23 | 352 | 3.2 | 6.4 | 0.00 | 0.00 | 0.00 | 77 | 1016.2 |
| 20260906022403 | 23 | 338 | 3.2 | 6.4 | 0.00 | 0.00 | 0.00 | 78 | 1016.2 |
| 20260906022217 | 23 | 341 | 1.6 | 6.4 | 0.00 | 0.00 | 0.00 | 78 | 1016.1 |
| 20260906021816 | 23 | 342 | 1.6 | 6.4 | 0.00 | 0.00 | 0.00 | 78 | 1016.1 |
| 20260906021416 | 23 | 337 | 3.2 | 6.4 | 0.00 | 0.00 | 0.00 | 78 | 1016.0 |
| 20260906021015 | 23 | 341 | 3.2 | 6.4 | 0.00 | 0.00 | 0.00 | 79 | 1016.2 |
| 20260906020403 | 23 | 343 | 1.6 | 6.4 | 0.00 | 0.00 | 0.00 | 80 | 1016.2 |
| 20260906020214 | 23 | 351 | 0.0 | 6.4 | 0.00 | 0.00 | 0.00 | 80 | 1015.9 |
| 20260906015813 | 23 | 359 | 1.6 | 6.4 | 0.00 | 0.00 | 0.00 | 80 | 1016.1 |
| 20260906015203 | 23 | 16 | 0.0 | 6.4 | 0.00 | 0.00 | 0.00 | 81 | 1016.3 |
| 20260906014803 | 23 | 7 | 1.6 | 6.4 | 0.00 | 0.00 | 0.00 | 81 | 1016.3 |
| 20260906014403 | 23 | 1 | 3.2 | 6.4 | 0.00 | 0.00 | 0.00 | 81 | 1016.3 |
| 20260906014003 | 23 | 337 | 1.6 | 6.4 | 0.00 | 0.00 | 0.00 | 82 | 1016.1 |
| 20260906013603 | 23 | 332 | 0.0 | 6.4 | 0.00 | 0.00 | 0.00 | 82 | 1015.9 |
| 20260906013203 | 23 | 319 | 3.2 | 6.4 | 0.00 | 0.00 | 0.00 | 83 | 1016.0 |
| 20260906012803 | 23 | 343 | 1.6 | 6.4 | 0.00 | 0.00 | 0.00 | 85 | 1016.1 |
| 20260906012403 | 23 | 353 | 1.6 | 6.4 | 0.00 | 0.00 | 0.00 | 85 | 1015.9 |
| 20260906012003 | 23 | 2 | 1.6 | 6.4 | 0.00 | 0.00 | 0.00 | 86 | 1015.9 |
| 20260906011603 | 23 | 347 | 1.6 | 6.4 | 0.00 | 0.00 | 0.00 | 86 | 1016.0 |
| 20260906011416 | 23 | 342 | 0.0 | 6.4 | 0.00 | 0.00 | 0.00 | 86 | 1015.9 |
| 20260906011016 | 23 | 340 | 1.6 | 6.4 | 0.00 | 0.00 | 0.00 | 87 | 1015.9 |
| 20260906010403 | 23 | 10 | 1.6 | 3.2 | 0.00 | 0.00 | 0.00 | 87 | 1016.0 |
| 20260906010003 | 23 | 20 | 0.0 | 3.2 | 0.00 | 0.00 | 0.00 | 88 | 1015.7 |
| 20260906005603 | 23 | 17 | 0.0 | 3.2 | 0.00 | 0.00 | 0.00 | 88 | 1015.9 |
| 20260906005203 | 23 | 354 | 0.0 | 6.4 | 0.00 | 0.00 | 0.00 | 88 | 1016.1 |
| 20260906004803 | 23 | 341 | 0.0 | 6.4 | 0.00 | 0.00 | 0.00 | 89 | 1016.0 |
| 20260906004403 | 23 | 335 | 1.6 | 6.4 | 0.00 | 0.00 | 0.00 | 89 | 1015.9 |
| 20260906004003 | 24 | 338 | 1.6 | 3.2 | 0.00 | 0.00 | 0.00 | 90 | 1016.0 |
| 20260906003603 | 24 | 347 | 0.0 | 6.4 | 0.00 | 0.00 | 0.00 | 91 | 1016.0 |
| 20260906003203 | 24 | 345 | 0.0 | 6.4 | 0.00 | 0.00 | 0.00 | 91 | 1015.9 |
| 20260906003014 | 24 | 347 | 0.0 | 6.4 | 0.00 | 0.00 | 0.00 | 91 | 1016.0 |
| 20260906002403 | 24 | 333 | 1.6 | 6.4 | 0.00 | 0.00 | 0.00 | 91 | 1016.0 |
| 20260906002213 | 24 | 340 | 1.6 | 6.4 | 0.00 | 0.00 | 0.00 | 91 | 1016.0 |
| 20260906001603 | 24 | 333 | 1.6 | 3.2 | 0.00 | 0.00 | 0.00 | 92 | 1016.1 |
| 20260906001204 | 24 | 305 | 0.0 | 3.2 | 0.00 | 0.00 | 0.00 | 92 | 1016.1 |
| 20260906000803 | 24 | 299 | 1.6 | 3.2 | 0.00 | 0.00 | 0.00 | 91 | 1016.0 |
| 20260906000403 | 24 | 320 | 1.6 | 6.4 | 0.00 | 0.00 | 0.00 | 91 | 1015.9 |
| 20260906000004 | 24 | 338 | 1.6 | 6.4 | 0.00 | 0.00 | 0.00 | 91 | 1015.7 |
| 20260905235603 | 24 | 336 | 3.2 | 6.4 | 0.00 | 0.00 | 0.00 | 91 | 1015.9 |
| 20260905235414 | 24 | 339 | 0.0 | 6.4 | 0.00 | 0.00 | 0.00 | 91 | 1016.1 |
| 20260905235013 | 25 | 335 | 0.0 | 6.4 | 0.00 | 0.00 | 0.00 | 91 | 1015.9 |
| 20260905234403 | 25 | 332 | 1.6 | 6.4 | 0.00 | 0.00 | 0.00 | 91 | 1015.9 |
| 20260905234003 | 25 | 343 | 1.6 | 3.2 | 0.00 | 0.00 | 0.00 | 91 | 1015.8 |
| 20260905233603 | 25 | 351 | 0.0 | 3.2 | 0.00 | 0.00 | 0.00 | 91 | 1015.8 |
| 20260905233416 | 25 | 350 | 3.2 | 3.2 | 0.00 | 0.00 | 0.00 | 91 | 1016.0 |
| 20260905232803 | 25 | 326 | 1.6 | 3.2 | 0.00 | 0.00 | 0.00 | 92 | 1015.6 |
| 20260905232403 | 25 | 317 | 1.6 | 3.2 | 0.00 | 0.00 | 0.00 | 92 | 1015.7 |
| 20260905232003 | 25 | 336 | 0.0 | 3.2 | 0.00 | 0.00 | 0.00 | 93 | 1015.7 |
| 20260905231603 | 25 | 3 | 0.0 | 3.2 | 0.00 | 0.00 | 0.00 | 94 | 1015.7 |
| 20260905231203 | 25 | 16 | 0.0 | 3.2 | 0.00 | 0.00 | 0.00 | 94 | 1015.7 |
| 20260905231017 | 25 | 22 | 1.6 | 3.2 | 0.00 | 0.00 | 0.00 | 94 | 1015.8 |
| 20260905230404 | 25 | 15 | 1.6 | 3.2 | 0.00 | 0.00 | 0.00 | 94 | 1015.7 |
| 20260905230216 | 25 | 10 | 1.6 | 3.2 | 0.00 | 0.00 | 0.00 | 94 | 1015.8 |
| 20260905225603 | 25 | 348 | 0.0 | 3.2 | 0.00 | 0.00 | 0.00 | 95 | 1015.6 |
| 20260905225203 | 25 | 11 | 0.0 | 3.2 | 0.00 | 0.00 | 0.00 | 95 | 1015.8 |
| 20260905224803 | 24 | 45 | 0.0 | 3.2 | 0.00 | 0.00 | 0.00 | 95 | 1015.5 |
| 20260905224613 | 24 | 45 | 0.0 | 3.2 | 0.00 | 0.00 | 0.00 | 95 | 1015.4 |
| 20260905224003 | 24 | 0 | 0.0 | 0.0 | 0.00 | 0.00 | 0.00 | 95 | 1015.5 |
| 20260905223603 | 24 | 0 | 0.0 | 0.0 | 0.00 | 0.00 | 0.00 | 95 | 1015.7 |
| 20260905223203 | 24 | 0 | 0.0 | 0.0 | 0.00 | 0.00 | 0.00 | 96 | 1015.4 |
| 20260905222803 | 24 | 0 | 0.0 | 0.0 | 0.00 | 0.00 | 0.00 | 96 | 1015.6 |
| 20260905222615 | 24 | 0 | 0.0 | 0.0 | 0.00 | 0.00 | 0.00 | 96 | 1015.6 |
| 20260905222003 | 24 | 0 | 0.0 | 0.0 | 0.00 | 0.00 | 0.00 | 96 | 1015.5 |
| 20260905221603 | 24 | 0 | 0.0 | 0.0 | 0.00 | 0.00 | 0.00 | 96 | 1015.5 |
| 20260905221203 | 23 | 0 | 0.0 | 0.0 | 0.00 | 0.00 | 0.00 | 96 | 1015.5 |
| 20260905220803 | 24 | 0 | 0.0 | 0.0 | 0.00 | 0.00 | 0.00 | 96 | 1015.4 |
| 20260905220403 | 24 | 0 | 0.0 | 0.0 | 0.00 | 0.00 | 0.00 | 96 | 1015.1 |
| 20260905220006 | 24 | 0 | 0.0 | 0.0 | 0.00 | 0.00 | 0.00 | 96 | 1015.3 |
| 20260905215816 | 24 | 0 | 0.0 | 0.0 | 0.00 | 0.00 | 0.00 | 96 | 1015.2 |
| 20260905215203 | 24 | 90 | 0.0 | 3.2 | 0.00 | 0.00 | 0.00 | 95 | 1015.3 |
| 20260905214803 | 24 | 90 | 0.0 | 3.2 | 0.00 | 0.00 | 0.00 | 95 | 1015.1 |
| 20260905214403 | 24 | 90 | 0.0 | 3.2 | 0.00 | 0.00 | 0.00 | 95 | 1015.2 |
| 20260905214003 | 24 | 90 | 0.0 | 3.2 | 0.00 | 0.00 | 0.00 | 95 | 1015.0 |
| 20260905213603 | 24 | 0 | 0.0 | 0.0 | 0.00 | 0.00 | 0.00 | 94 | 1015.2 |
| 20260905213203 | 24 | 0 | 0.0 | 0.0 | 0.00 | 0.00 | 0.00 | 94 | 1015.0 |
| 20260905212803 | 25 | 0 | 0.0 | 0.0 | 0.00 | 0.00 | 0.00 | 94 | 1014.9 |
| 20260905212403 | 25 | 0 | 0.0 | 0.0 | 0.00 | 0.00 | 0.00 | 94 | 1014.9 |
| 20260905212003 | 25 | 0 | 0.0 | 0.0 | 0.00 | 0.00 | 0.00 | 93 | 1014.7 |
| 20260905211603 | 25 | 0 | 0.0 | 0.0 | 0.00 | 0.00 | 0.00 | 93 | 1014.8 |
| 20260905211203 | 25 | 0 | 0.0 | 0.0 | 0.00 | 0.00 | 0.00 | 93 | 1014.6 |
| 20260905210803 | 25 | 0 | 0.0 | 0.0 | 0.00 | 0.00 | 0.00 | 93 | 1014.7 |
| 20260905210612 | 25 | 0 | 0.0 | 0.0 | 0.00 | 0.00 | 0.00 | 93 | 1014.6 |
| 20260905210217 | 25 | 0 | 0.0 | 0.0 | 0.00 | 0.00 | 0.00 | 92 | 1014.5 |
| 20260905205603 | 25 | 90 | 0.0 | 3.2 | 0.00 | 0.00 | 0.00 | 92 | 1014.7 |
| 20260905205416 | 25 | 90 | 0.0 | 3.2 | 0.00 | 0.00 | 0.00 | 92 | 1014.8 |
| 20260905204804 | 25 | 90 | 0.0 | 3.2 | 0.00 | 0.00 | 0.00 | 92 | 1014.7 |
| 20260905204403 | 25 | 0 | 0.0 | 0.0 | 0.00 | 0.00 | 0.00 | 92 | 1014.9 |
| 20260905204004 | 25 | 0 | 0.0 | 0.0 | 0.00 | 0.00 | 0.00 | 93 | 1014.8 |
| 20260905203603 | 25 | 0 | 0.0 | 0.0 | 0.00 | 0.00 | 0.00 | 93 | 1014.6 |
| 20260905203203 | 25 | 0 | 0.0 | 0.0 | 0.00 | 0.00 | 0.00 | 93 | 1014.7 |
| 20260905202803 | 25 | 0 | 0.0 | 0.0 | 0.00 | 0.00 | 0.00 | 93 | 1014.8 |
| 20260905202403 | 25 | 0 | 0.0 | 0.0 | 0.00 | 0.00 | 0.00 | 93 | 1014.8 |
| 20260905202003 | 25 | 0 | 0.0 | 0.0 | 0.00 | 0.00 | 0.00 | 92 | 1014.8 |
| 20260905201603 | 25 | 90 | 0.0 | 3.2 | 0.00 | 0.00 | 0.00 | 92 | 1014.7 |
| 20260905201203 | 25 | 90 | 0.0 | 3.2 | 0.00 | 0.00 | 0.00 | 92 | 1014.7 |
| 20260905201014 | 25 | 90 | 0.0 | 3.2 | 0.00 | 0.00 | 0.00 | 92 | 1014.8 |
| 20260905200403 | 25 | 0 | 0.0 | 0.0 | 0.00 | 0.00 | 0.00 | 91 | 1014.5 |
| 20260905200003 | 25 | 0 | 0.0 | 0.0 | 0.00 | 0.00 | 0.00 | 91 | 1014.5 |
| 20260905195603 | 25 | 0 | 0.0 | 0.0 | 0.00 | 0.00 | 0.00 | 91 | 1014.5 |
| 20260905195203 | 25 | 90 | 0.0 | 3.2 | 0.00 | 0.00 | 0.00 | 90 | 1014.5 |
| 20260905194803 | 25 | 85 | 0.0 | 6.4 | 0.00 | 0.00 | 0.00 | 90 | 1014.5 |
| 20260905194403 | 26 | 82 | 1.6 | 6.4 | 0.00 | 0.00 | 0.00 | 89 | 1014.2 |
| 20260905194004 | 26 | 77 | 1.6 | 6.4 | 0.00 | 0.00 | 0.00 | 89 | 1014.4 |
| 20260905193814 | 26 | 79 | 3.2 | 6.4 | 0.00 | 0.00 | 0.00 | 89 | 1014.1 |
| 20260905193203 | 26 | 78 | 0.0 | 3.2 | 0.00 | 0.00 | 0.00 | 89 | 1014.0 |
| 20260905192803 | 26 | 72 | 1.6 | 3.2 | 0.00 | 0.00 | 0.00 | 89 | 1014.0 |
| 20260905192403 | 26 | 68 | 1.6 | 3.2 | 0.00 | 0.00 | 0.00 | 88 | 1013.8 |
| 20260905192003 | 26 | 82 | 1.6 | 3.2 | 0.00 | 0.00 | 0.00 | 88 | 1014.0 |
| 20260905191816 | 26 | 85 | 1.6 | 3.2 | 0.00 | 0.00 | 0.00 | 88 | 1013.8 |
| 20260905191203 | 26 | 85 | 0.0 | 3.2 | 0.00 | 0.00 | 0.00 | 88 | 1013.9 |
| 20260905190803 | 26 | 81 | 1.6 | 6.4 | 0.00 | 0.00 | 0.00 | 88 | 1013.6 |
| 20260905190403 | 26 | 80 | 3.2 | 6.4 | 0.00 | 0.00 | 0.00 | 87 | 1013.9 |
| 20260905190003 | 26 | 88 | 3.2 | 6.4 | 0.00 | 0.00 | 0.00 | 88 | 1013.5 |
| 20260905185603 | 26 | 90 | 1.6 | 6.4 | 0.00 | 0.00 | 0.00 | 88 | 1013.8 |
| 20260905185203 | 26 | 90 | 3.2 | 6.4 | 0.00 | 0.00 | 0.00 | 87 | 1013.7 |
| 20260905184803 | 26 | 85 | 0.0 | 3.2 | 0.00 | 0.00 | 0.00 | 87 | 1013.6 |
| 20260905184403 | 26 | 79 | 3.2 | 3.2 | 0.00 | 0.00 | 0.00 | 86 | 1013.6 |
| 20260905184003 | 26 | 67 | 1.6 | 3.2 | 0.00 | 0.00 | 0.00 | 86 | 1013.5 |
| 20260905183603 | 31 | 67 | 8.0 | 12.9 | 0.00 | 0.00 | 0.00 | 68 | 1013.3 |
| 20260905183204 | 31 | 67 | 8.0 | 12.9 | 0.00 | 0.00 | 0.00 | 68 | 1013.2 |
| 20260905183013 | 31 | 67 | 8.0 | 12.9 | 0.00 | 0.00 | 0.00 | 68 | 1013.2 |
| 20260905182404 | 31 | 67 | 8.0 | 12.9 | 0.00 | 0.00 | 0.00 | 68 | 1013.0 |
| 20260905182003 | 31 | 67 | 8.0 | 12.9 | 0.00 | 0.00 | 0.00 | 68 | 1013.0 |
| 20260905181603 | 31 | 67 | 8.0 | 12.9 | 0.00 | 0.00 | 0.00 | 68 | 1013.0 |
| 20260905181416 | 31 | 67 | 8.0 | 12.9 | 0.00 | 0.00 | 0.00 | 68 | 1013.1 |
| 20260905180803 | 31 | 67 | 8.0 | 12.9 | 0.00 | 0.00 | 0.00 | 68 | 1012.9 |
| 20260905180403 | 31 | 67 | 8.0 | 12.9 | 0.00 | 0.00 | 0.00 | 68 | 1012.9 |
| 20260905180214 | 31 | 67 | 8.0 | 12.9 | 0.00 | 0.00 | 0.00 | 68 | 1012.8 |
| 20260905175603 | 31 | 67 | 8.0 | 12.9 | 0.00 | 0.00 | 0.00 | 68 | 1012.8 |
| 20260905175412 | 31 | 67 | 8.0 | 12.9 | 0.00 | 0.00 | 0.00 | 68 | 1012.8 |
| 20260905174803 | 31 | 67 | 8.0 | 12.9 | 0.00 | 0.00 | 0.00 | 68 | 1012.7 |
| 20260905174403 | 31 | 67 | 8.0 | 12.9 | 0.00 | 0.00 | 0.00 | 68 | 1012.8 |
| 20260905174003 | 31 | 67 | 8.0 | 12.9 | 0.00 | 0.00 | 0.00 | 68 | 1012.9 |
| 20260905173815 | 31 | 67 | 8.0 | 12.9 | 0.00 | 0.00 | 0.00 | 68 | 1012.6 |
| 20260905173203 | 31 | 67 | 8.0 | 12.9 | 0.00 | 0.00 | 0.00 | 68 | 1012.3 |
| 20260905172803 | 31 | 67 | 8.0 | 12.9 | 0.00 | 0.00 | 0.00 | 68 | 1012.7 |
| 20260905172613 | 31 | 67 | 8.0 | 12.9 | 0.00 | 0.00 | 0.00 | 68 | 1012.5 |
| 20260905172003 | 31 | 67 | 8.0 | 12.9 | 0.00 | 0.00 | 0.00 | 68 | 1012.6 |
| 20260905171603 | 31 | 67 | 8.0 | 12.9 | 0.00 | 0.00 | 0.00 | 68 | 1012.4 |
| 20260905171203 | 31 | 67 | 8.0 | 12.9 | 0.00 | 0.00 | 0.00 | 68 | 1012.4 |
| 20260905171016 | 31 | 67 | 8.0 | 12.9 | 0.00 | 0.00 | 0.00 | 68 | 1012.5 |
| 20260905170403 | 31 | 67 | 8.0 | 12.9 | 0.00 | 0.00 | 0.00 | 68 | 1012.6 |
| 20260905170004 | 31 | 67 | 8.0 | 12.9 | 0.00 | 0.00 | 0.00 | 68 | 1012.2 |
| 20260905165603 | 31 | 67 | 8.0 | 12.9 | 0.00 | 0.00 | 0.00 | 68 | 1012.5 |
| 20260905165203 | 31 | 67 | 8.0 | 12.9 | 0.00 | 0.00 | 0.00 | 68 | 1012.3 |
| 20260905164803 | 31 | 67 | 8.0 | 12.9 | 0.00 | 0.00 | 0.00 | 68 | 1012.3 |
| 20260905164403 | 31 | 67 | 8.0 | 12.9 | 0.00 | 0.00 | 0.00 | 68 | 1012.1 |
| 20260905164216 | 31 | 67 | 8.0 | 12.9 | 0.00 | 0.00 | 0.00 | 68 | 1012.1 |
| 20260905163816 | 31 | 69 | 8.0 | 12.9 | 0.00 | 0.00 | 0.00 | 68 | 1012.0 |
| 20260905163203 | 31 | 81 | 8.0 | 12.9 | 0.00 | 0.00 | 0.00 | 68 | 1012.1 |
| 20260905162803 | 31 | 88 | 3.2 | 6.4 | 0.00 | 0.00 | 0.00 | 63 | 1012.1 |
| 20260905162404 | 32 | 86 | 3.2 | 6.4 | 0.00 | 0.00 | 0.00 | 62 | 1012.1 |
| 20260905162003 | 32 | 90 | 1.6 | 3.2 | 0.00 | 0.00 | 0.00 | 55 | 1012.0 |
| 20260905161603 | 32 | 90 | 1.6 | 3.2 | 0.00 | 0.00 | 0.00 | 52 | 1012.1 |
| 20260905161203 | 33 | 90 | 0.0 | 3.2 | 0.00 | 0.00 | 0.00 | 54 | 1011.9 |
| 20260905160803 | 32 | 97 | 0.0 | 3.2 | 0.00 | 0.00 | 0.00 | 52 | 1011.8 |
| 20260905160403 | 32 | 116 | 1.6 | 3.2 | 0.00 | 0.00 | 0.00 | 55 | 1011.9 |
| 20260905160004 | 33 | 116 | 1.6 | 3.2 | 0.00 | 0.00 | 0.00 | 52 | 1012.1 |
| 20260905155604 | 33 | 99 | 1.6 | 3.2 | 0.00 | 0.00 | 0.00 | 52 | 1011.9 |
| 20260905155203 | 33 | 90 | 1.6 | 3.2 | 0.00 | 0.00 | 0.00 | 52 | 1012.0 |
| 20260905154803 | 33 | 90 | 0.0 | 6.4 | 0.00 | 0.00 | 0.00 | 53 | 1011.9 |
| 20260905154403 | 33 | 89 | 0.0 | 6.4 | 0.00 | 0.00 | 0.00 | 51 | 1011.9 |
| 20260905154003 | 33 | 88 | 1.6 | 6.4 | 0.00 | 0.00 | 0.00 | 53 | 1011.9 |
| 20260905153816 | 33 | 88 | 3.2 | 6.4 | 0.00 | 0.00 | 0.00 | 53 | 1011.9 |
| 20260905153203 | 34 | 127 | 0.0 | 3.2 | 0.00 | 0.00 | 0.00 | 49 | 1011.9 |
| 20260905153015 | 34 | 122 | 0.0 | 3.2 | 0.00 | 0.00 | 0.00 | 50 | 1011.8 |
| 20260905152403 | 34 | 41 | 0.0 | 3.2 | 0.00 | 0.00 | 0.00 | 54 | 1011.9 |
| 20260905152214 | 34 | 39 | 0.0 | 3.2 | 0.00 | 0.00 | 0.00 | 51 | 1011.8 |
| 20260905151603 | 34 | 102 | 1.6 | 3.2 | 0.00 | 0.00 | 0.00 | 48 | 1011.8 |
| 20260905151203 | 33 | 108 | 1.6 | 6.4 | 0.00 | 0.00 | 0.00 | 50 | 1011.9 |
| 20260905150803 | 33 | 101 | 0.0 | 6.4 | 0.00 | 0.00 | 0.00 | 52 | 1011.8 |
| 20260905150403 | 33 | 98 | 3.2 | 6.4 | 0.00 | 0.00 | 0.00 | 52 | 1011.6 |
| 20260905150216 | 33 | 101 | 3.2 | 6.4 | 0.00 | 0.00 | 0.00 | 55 | 1011.8 |
| 20260905145603 | 34 | 116 | 1.6 | 3.2 | 0.00 | 0.00 | 0.00 | 53 | 1011.8 |
| 20260905145203 | 34 | 101 | 1.6 | 3.2 | 0.00 | 0.00 | 0.00 | 50 | 1011.8 |
| 20260905144803 | 35 | 113 | 3.2 | 3.2 | 0.00 | 0.00 | 0.00 | 52 | 1011.8 |
| 20260905144403 | 34 | 118 | 0.0 | 3.2 | 0.00 | 0.00 | 0.00 | 51 | 1012.0 |
| 20260905144003 | 33 | 120 | 0.0 | 3.2 | 0.00 | 0.00 | 0.00 | 52 | 1011.6 |
| 20260905143603 | 33 | 117 | 3.2 | 6.4 | 0.00 | 0.00 | 0.00 | 56 | 1011.7 |
| 20260905143203 | 33 | 162 | 0.0 | 6.4 | 0.00 | 0.00 | 0.00 | 54 | 1012.0 |
| 20260905142803 | 33 | 144 | 3.2 | 6.4 | 0.00 | 0.00 | 0.00 | 52 | 1012.0 |
| 20260905142615 | 34 | 138 | 3.2 | 6.4 | 0.00 | 0.00 | 0.00 | 53 | 1012.0 |
| 20260905142003 | 33 | 101 | 3.2 | 6.4 | 0.00 | 0.00 | 0.00 | 53 | 1012.0 |
| 20260905141603 | 34 | 119 | 3.2 | 6.4 | 0.00 | 0.00 | 0.00 | 53 | 1012.0 |
| 20260905141203 | 34 | 222 | 1.6 | 6.4 | 0.00 | 0.00 | 0.00 | 49 | 1011.9 |
| 20260905140803 | 33 | 265 | 1.6 | 6.4 | 0.00 | 0.00 | 0.00 | 50 | 1012.1 |
| 20260905140617 | 33 | 269 | 1.6 | 6.4 | 0.00 | 0.00 | 0.00 | 51 | 1011.8 |
| 20260905140216 | 34 | 274 | 6.4 | 9.7 | 0.00 | 0.00 | 0.00 | 50 | 1012.1 |
| 20260905135603 | 33 | 143 | 1.6 | 9.7 | 0.00 | 0.00 | 0.00 | 50 | 1011.9 |
| 20260905135203 | 34 | 185 | 1.6 | 6.4 | 0.00 | 0.00 | 0.00 | 51 | 1012.1 |
| 20260905134803 | 33 | 251 | 1.6 | 9.7 | 0.00 | 0.00 | 0.00 | 49 | 1012.0 |
| 20260905134403 | 32 | 257 | 4.8 | 9.7 | 0.00 | 0.00 | 0.00 | 52 | 1012.2 |
| 20260905134003 | 33 | 238 | 4.8 | 9.7 | 0.00 | 0.00 | 0.00 | 51 | 1012.0 |
| 20260905133603 | 33 | 219 | 3.2 | 6.4 | 0.00 | 0.00 | 0.00 | 51 | 1012.2 |
| 20260905133203 | 33 | 246 | 3.2 | 6.4 | 0.00 | 0.00 | 0.00 | 52 | 1012.1 |
| 20260905132803 | 32 | 270 | 3.2 | 9.7 | 0.00 | 0.00 | 0.00 | 54 | 1012.4 |
| 20260905132403 | 33 | 277 | 3.2 | 9.7 | 0.00 | 0.00 | 0.00 | 52 | 1012.4 |
| 20260905132003 | 33 | 274 | 6.4 | 9.7 | 0.00 | 0.00 | 0.00 | 52 | 1012.5 |
| 20260905131603 | 32 | 266 | 3.2 | 9.7 | 0.00 | 0.00 | 0.00 | 51 | 1012.3 |
| 20260905131203 | 32 | 254 | 3.2 | 9.7 | 0.00 | 0.00 | 0.00 | 54 | 1012.2 |
| 20260905130803 | 33 | 286 | 3.2 | 6.4 | 0.00 | 0.00 | 0.00 | 51 | 1012.3 |
| 20260905130403 | 33 | 322 | 3.2 | 6.4 | 0.00 | 0.00 | 0.00 | 51 | 1012.4 |
| 20260905130004 | 33 | 315 | 3.2 | 6.4 | 0.00 | 0.00 | 0.00 | 50 | 1012.5 |
| 20260905125603 | 33 | 275 | 3.2 | 6.4 | 0.00 | 0.00 | 0.00 | 50 | 1012.4 |
| 20260905125203 | 33 | 272 | 3.2 | 6.4 | 0.00 | 0.00 | 0.00 | 53 | 1012.5 |
| 20260905125015 | 33 | 274 | 1.6 | 6.4 | 0.00 | 0.00 | 0.00 | 52 | 1012.8 |
| 20260905124614 | 32 | 281 | 3.2 | 6.4 | 0.00 | 0.00 | 0.00 | 52 | 1012.5 |
| 20260905124003 | 32 | 251 | 3.2 | 6.4 | 0.00 | 0.00 | 0.00 | 53 | 1012.8 |
| 20260905123603 | 32 | 238 | 3.2 | 6.4 | 0.00 | 0.00 | 0.00 | 54 | 1012.7 |
| 20260905123203 | 32 | 232 | 3.2 | 6.4 | 0.00 | 0.00 | 0.00 | 53 | 1012.8 |
| 20260905122803 | 32 | 212 | 3.2 | 6.4 | 0.00 | 0.00 | 0.00 | 53 | 1012.4 |
| 20260905122403 | 32 | 230 | 3.2 | 6.4 | 0.00 | 0.00 | 0.00 | 56 | 1012.7 |
| 20260905122003 | 32 | 221 | 3.2 | 9.7 | 0.00 | 0.00 | 0.00 | 53 | 1012.8 |
| 20260905121815 | 32 | 207 | 1.6 | 9.7 | 0.00 | 0.00 | 0.00 | 55 | 1012.9 |
| 20260905121203 | 32 | 162 | 6.4 | 9.7 | 0.00 | 0.00 | 0.00 | 54 | 1013.0 |
| 20260905120804 | 32 | 91 | 3.2 | 6.4 | 0.00 | 0.00 | 0.00 | 54 | 1012.9 |
| 20260905120403 | 31 | 75 | 3.2 | 6.4 | 0.00 | 0.00 | 0.00 | 55 | 1012.8 |
| 20260905120003 | 32 | 68 | 3.2 | 6.4 | 0.00 | 0.00 | 0.00 | 57 | 1013.0 |
| 20260905115603 | 32 | 39 | 3.2 | 6.4 | 0.00 | 0.00 | 0.00 | 58 | 1012.9 |
| 20260905115203 | 31 | 236 | 3.2 | 6.4 | 0.00 | 0.00 | 0.00 | 57 | 1012.9 |
| 20260905114803 | 31 | 194 | 3.2 | 6.4 | 0.00 | 0.00 | 0.00 | 58 | 1012.9 |
| 20260905114403 | 32 | 130 | 3.2 | 6.4 | 0.00 | 0.00 | 0.00 | 57 | 1013.1 |
| 20260905114003 | 32 | 118 | 3.2 | 6.4 | 0.00 | 0.00 | 0.00 | 57 | 1013.1 |
| 20260905113603 | 32 | 115 | 1.6 | 6.4 | 0.00 | 0.00 | 0.00 | 59 | 1013.0 |
| 20260905113203 | 32 | 100 | 3.2 | 6.4 | 0.00 | 0.00 | 0.00 | 60 | 1013.0 |
| 20260905112803 | 31 | 97 | 1.6 | 6.4 | 0.00 | 0.00 | 0.00 | 62 | 1012.7 |
| 20260905112403 | 32 | 108 | 3.2 | 6.4 | 0.00 | 0.00 | 0.00 | 59 | 1013.0 |
| 20260905112003 | 32 | 114 | 1.6 | 6.4 | 0.00 | 0.00 | 0.00 | 61 | 1012.9 |
| 20260905111603 | 32 | 89 | 4.8 | 6.4 | 0.00 | 0.00 | 0.00 | 57 | 1012.9 |
| 20260905111203 | 32 | 38 | 1.6 | 3.2 | 0.00 | 0.00 | 0.00 | 59 | 1012.9 |
| 20260905110803 | 32 | 46 | 3.2 | 3.2 | 0.00 | 0.00 | 0.00 | 61 | 1012.8 |
| 20260905110403 | 31 | 105 | 3.2 | 3.2 | 0.00 | 0.00 | 0.00 | 60 | 1013.0 |
| 20260905110003 | 31 | 126 | 3.2 | 6.4 | 0.00 | 0.00 | 0.00 | 62 | 1012.9 |
| 20260905105603 | 31 | 146 | 1.6 | 6.4 | 0.00 | 0.00 | 0.00 | 64 | 1013.2 |
| 20260905105203 | 31 | 199 | 1.6 | 6.4 | 0.00 | 0.00 | 0.00 | 62 | 1013.2 |
| 20260905104803 | 31 | 187 | 1.6 | 6.4 | 0.00 | 0.00 | 0.00 | 60 | 1013.1 |
| 20260905104403 | 31 | 243 | 3.2 | 6.4 | 0.00 | 0.00 | 0.00 | 64 | 1013.0 |
| 20260905104215 | 31 | 247 | 3.2 | 6.4 | 0.00 | 0.00 | 0.00 | 62 | 1013.3 |
| 20260905103814 | 31 | 245 | 4.8 | 6.4 | 0.00 | 0.00 | 0.00 | 63 | 1013.3 |
| 20260905103203 | 31 | 108 | 1.6 | 6.4 | 0.00 | 0.00 | 0.00 | 61 | 1013.3 |
| 20260905102803 | 31 | 140 | 3.2 | 3.2 | 0.00 | 0.00 | 0.00 | 61 | 1013.1 |
| 20260905102618 | 31 | 151 | 3.2 | 3.2 | 0.00 | 0.00 | 0.00 | 62 | 1012.8 |
| 20260905102003 | 31 | 153 | 1.6 | 3.2 | 0.00 | 0.00 | 0.00 | 66 | 1013.1 |
| 20260905101816 | 31 | 181 | 3.2 | 6.4 | 0.00 | 0.00 | 0.00 | 65 | 1013.1 |
| 20260905101203 | 30 | 245 | 3.2 | 6.4 | 0.00 | 0.00 | 0.00 | 66 | 1013.0 |
| 20260905101015 | 30 | 255 | 3.2 | 6.4 | 0.00 | 0.00 | 0.00 | 66 | 1013.3 |
| 20260905100615 | 29 | 257 | 1.6 | 6.4 | 0.00 | 0.00 | 0.00 | 67 | 1013.1 |